Home   Weather   Zürich   Past weeks
Flag for Switzerland

Past Weather in Zürich, Zurich, Switzerland — Yesterday and Last 2 Weeks

Now
51 °F

Cool.


Feels Like: 50 °F
Forecast: 69 / 45 °F
Wind: 3 mph from West

Location: Zuerich-Fluntern

Current Time: May 22, 2019 at 9:35:07 am

Latest Report: May 22, 2019 at 8:00 am


Visibility: N/A

Pressure: 30.10 "Hg

Humidity: 94%

Dew Point: 49 °F

Location of ZürichLocation

Past Weather in Zürich — Graph

°F

Zürich Temperature Yesterday

Maximum temperature yesterday: 53 °F (at 4:00 pm)
Minimum temperature yesterday: 49 °F (at 6:00 am)
Average temperature yesterday: 51 °F

High & Low Weather Summary for the Past Weeks

 TemperatureHumidityPressure
High67 °F (May 17, 4:00 pm)97% (May 9, 7:00 am)30.50 "Hg (May 9, 7:00 am)
Low34 °F (May 7, 7:00 am)32% (May 7, 4:00 pm)29.59 "Hg (May 17, 6:00 pm)
Average50 °F75%29.96 "Hg
* Reported May 7 7:00 am — May 22 7:00 am, Zürich. Weather by CustomWeather, © 2019

Note: Actual official high and low records may vary slightly from our data, if they occured in-between our weather recording intervals... More about our weather records

Advertising

Zürich Weather History for the Previous 24 Hours

Scroll right to see more
 ConditionsComfort  
Time TempWeatherWind HumidityBarometerVisibility
7:00 am
Wed, May 22
51 °FCool.5 mph95%30.09 "HgN/A
6:00 am51 °FCool.3 mph95%30.08 "HgN/A
5:00 am51 °FCool.3 mph96%30.08 "HgN/A
4:00 am51 °FCool.2 mph96%30.07 "HgN/A
3:00 am51 °FCool.3 mph96%30.07 "HgN/A
2:00 am51 °FCool.2 mph96%30.07 "HgN/A
1:00 am51 °FCool.2 mph96%30.07 "HgN/A
12:00 am52 °FCool.2 mph95%30.07 "HgN/A
11:00 pm
Tue, May 21
51 °FCool.2 mph96%30.07 "HgN/A
10:00 pm52 °FCool.1 mph96%30.06 "HgN/A
9:00 pm52 °FCool.2 mph96%30.03 "HgN/A
8:00 pm53 °FOvercast.2 mph94%30.02 "HgN/A
7:00 pm53 °FCool.5 mph93%30.00 "HgN/A
6:00 pm53 °FCool.6 mph92%30.00 "HgN/A
5:00 pm53 °FCool.7 mph91%29.99 "HgN/A
4:00 pm53 °FCool.6 mph91%29.98 "HgN/A
3:00 pm53 °FCool.7 mph94%29.97 "HgN/A
2:00 pm52 °FOvercast.8 mph94%29.96 "HgN/A
1:00 pm51 °FCool.7 mph94%29.96 "HgN/A
12:00 pm51 °FCool.7 mph92%29.94 "HgN/A
11:00 am52 °FCool.9 mph88%29.93 "HgN/A
10:00 am51 °FCool.9 mph89%29.92 "HgN/A
9:00 am50 °FCool.10 mph91%29.91 "HgN/A
Weather by CustomWeather, © 2019

See weather overview